Flag for U.S.A. Weather past 2 weeks in Kalamazoo, Michigan, U.S.A.

Now
59 °F

Mostly cloudy.


Feels Like: 57 °F
Forecast: 55 / 73 °F
Wind: 9 mph from Southeast

Location: Kellogg Airport

Current Time: Oct 2, 2014 at 6:46:04 AM

Latest Report: Oct 2, 2014 at 5:53 AM


Visibility: 10 mi

Pressure: 29.96 "Hg

Humidity: 75%

Dew point: 51 °F

Location of KalamazooLocation

Historic Weather in Kalamazoo — Graph

°F

Kalamazoo temperature yesterday

Maximum temperature yesterday: 66 °F (at 5:53 PM)
Minimum temperature yesterday: 52 °F (at 1:53 AM)
Average temperature yesterday: 57 °F

Past Weeks' High & Low Weather Summary

 TemperatureHumidityPressure
High79 °F (Sep 20, 2:53 PM)94% (Sep 20, 11:53 PM)30.42 "Hg (Sep 20, 11:53 PM)
Low40 °F (Sep 17, 6:53 AM)37% (Sep 24, 4:53 PM)29.62 "Hg (Sep 21, 3:53 AM)
Average59 °F72%30.12 "Hg
* Reported Sep 17 5:53 AM — Oct 2 5:53 AM, Kalamazoo, Weather by CustomWeather, © 2014

Note: Actual official high and low records may vary slightly from our data, if they occured in-between our weather recording intervals... More about our weather records

Advertising

Kalamazoo weather history for previous 24 hours

 ConditionsComfort  
Time TempWeatherWind HumidityBarometerVisibility
5:53 AM
Oct 2
59 °FMostly cloudy.9 mph75%29.96 "Hg10 mi
4:53 AM58 °FOvercast.8 mph81%29.96 "Hg10 mi
3:53 AM56 °FPassing clouds.6 mph87%29.98 "Hg8 mi
2:53 AM56 °FClear.5 mph84%30.00 "Hg9 mi
1:53 AM56 °FClear.8 mph81%30.00 "Hg10 mi
12:53 AM56 °FClear.6 mph75%30.01 "Hg10 mi
11:53 PM
Oct 1
56 °FClear.5 mph75%30.01 "Hg10 mi
10:53 PM57 °FClear.5 mph72%30.02 "Hg10 mi
9:53 PM57 °FClear.6 mph72%30.01 "Hg10 mi
8:53 PM59 °FClear.6 mph69%30.01 "Hg10 mi
7:53 PM61 °FSunny.3 mph62%29.99 "Hg10 mi
6:53 PM64 °FSunny.5 mph58%29.98 "Hg10 mi
5:53 PM66 °FSunny.9 mph52%29.99 "Hg10 mi
4:53 PM65 °FSunny.8 mph56%30.00 "Hg10 mi
3:53 PM64 °FPassing clouds.9 mph58%30.01 "Hg10 mi
2:53 PM63 °FPartly sunny.6 mph60%30.03 "Hg10 mi
1:53 PM61 °FOvercast.9 mph65%30.06 "Hg10 mi
12:53 PM59 °FOvercast.5 mph67%30.07 "Hg10 mi
11:53 AM57 °FOvercast.3 mph72%30.08 "Hg10 mi
10:53 AM54 °FOvercast.No wind77%30.08 "Hg10 mi
9:53 AM52 °FOvercast.6 mph80%30.08 "Hg10 mi
8:53 AM52 °FOvercast.8 mph80%30.06 "Hg10 mi
7:53 AM53 °FOvercast.6 mph80%30.05 "Hg10 mi
6:53 AM53 °FMostly cloudy.No wind83%30.04 "Hg10 mi
Weather by CustomWeather, © 2014

See weather overviewHow to use our weather pages